EAG5519 SBTE-SBBR

Flight info

Callsign EAG5519
Flight time 1h 52m
Altitude 34000
Route GUEST DCT KADAG DCT TOLAT
Aircraft A20N/M-SDFGIRWY/S

Departure

Time 2026-04-23 02:18
Airport Senador Petrônio Portela Airport (SBTE)

Arrival

Time 2026-04-23 04:10
Airport Presidente Juscelino Kubitschek International Airport (SBBR)
Time Latitude Longitude Altitude Speed Heading
2026-04-23 01:54 -5.06410 -42.82174 214 ft 0 kts 120°
2026-04-23 02:05 -5.06407 -42.82179 215 ft 2 kts 117°
2026-04-23 02:06 -5.06400 -42.82196 219 ft 3 kts 102°
2026-04-23 02:06 -5.06398 -42.82216 224 ft 3 kts 94°
2026-04-23 02:06 -5.06396 -42.82231 225 ft 1 kts 96°
2026-04-23 02:06 -5.06396 -42.82232 226 ft 3 kts 96°
2026-04-23 02:10 -5.06396 -42.82230 214 ft 1 kts 81°
2026-04-23 02:10 -5.06393 -42.82226 219 ft 1 kts 53°
2026-04-23 02:11 -5.06382 -42.82227 216 ft 1 kts 334°
2026-04-23 02:11 -5.06378 -42.82234 216 ft 1 kts 286°
2026-04-23 02:11 -5.06378 -42.82235 216 ft 0 kts 286°
2026-04-23 02:11 -5.06377 -42.82237 216 ft 2 kts 286°
2026-04-23 02:12 -5.06374 -42.82271 215 ft 5 kts 271°
2026-04-23 02:12 -5.06367 -42.82304 219 ft 5 kts 296°
2026-04-23 02:12 -5.06323 -42.82338 221 ft 10 kts 347°
2026-04-23 02:12 -5.06257 -42.82347 215 ft 10 kts 353°
2026-04-23 02:13 -5.06186 -42.82355 215 ft 11 kts 354°
2026-04-23 02:13 -5.06174 -42.82356 222 ft 11 kts 354°
2026-04-23 02:13 -5.06103 -42.82363 214 ft 17 kts 354°
2026-04-23 02:13 -5.05971 -42.82377 214 ft 19 kts 354°
2026-04-23 02:14 -5.05839 -42.82391 219 ft 19 kts 354°
2026-04-23 02:14 -5.05706 -42.82405 219 ft 19 kts 354°
2026-04-23 02:14 -5.05569 -42.82419 217 ft 20 kts 353°
2026-04-23 02:14 -5.05434 -42.82434 214 ft 19 kts 354°
2026-04-23 02:15 -5.05175 -42.82460 218 ft 19 kts 354°
2026-04-23 02:15 -5.05073 -42.82447 215 ft 11 kts 13°
2026-04-23 02:15 -5.05022 -42.82466 218 ft 2 kts 300°
2026-04-23 02:16 -5.05025 -42.82475 220 ft 2 kts 237°
2026-04-23 02:16 -5.05036 -42.82476 221 ft 0 kts 172°
2026-04-23 02:17 -5.05037 -42.82476 221 ft 1 kts 172°
2026-04-23 02:17 -5.05107 -42.82467 216 ft 38 kts 174°
2026-04-23 02:17 -5.05609 -42.82415 216 ft 106 kts 174°
2026-04-23 02:18 -5.06545 -42.82312 217 ft 162 kts 173°
2026-04-23 02:18 -5.07764 -42.82165 533 ft 185 kts 173°
2026-04-23 02:18 -5.09086 -42.82022 1146 ft 190 kts 172°
2026-04-23 02:18 -5.10339 -42.81860 2066 ft 178 kts 170°
2026-04-23 02:19 -5.11592 -42.81694 2535 ft 190 kts 170°
2026-04-23 02:19 -5.12976 -42.81516 2845 ft 211 kts 170°
2026-04-23 02:19 -5.14507 -42.81314 3170 ft 232 kts 170°
2026-04-23 02:19 -5.16175 -42.81088 3577 ft 251 kts 170°
2026-04-23 02:20 -5.17962 -42.80846 4028 ft 265 kts 170°
2026-04-23 02:20 -5.19800 -42.80668 4783 ft 268 kts 181°
2026-04-23 02:20 -5.21602 -42.81239 5436 ft 279 kts 212°
2026-04-23 02:20 -5.22933 -42.82659 6171 ft 286 kts 237°
2026-04-23 02:21 -5.23966 -42.84374 6797 ft 289 kts 233°
2026-04-23 02:21 -5.25214 -42.85965 7427 ft 290 kts 224°
2026-04-23 02:21 -5.26665 -42.87370 8072 ft 291 kts 218°
2026-04-23 02:21 -5.28246 -42.88641 8698 ft 293 kts 214°
2026-04-23 02:22 -5.29926 -42.89816 9300 ft 295 kts 211°
2026-04-23 02:22 -5.31672 -42.90925 9896 ft 298 kts 209°
2026-04-23 02:22 -5.33494 -42.92008 10179 ft 313 kts 207°
2026-04-23 02:22 -5.35443 -42.93117 10343 ft 330 kts 207°
2026-04-23 02:23 -5.37498 -42.94256 10512 ft 346 kts 207°
2026-04-23 02:23 -5.39650 -42.95438 10672 ft 361 kts 207°
2026-04-23 02:23 -5.41903 -42.96672 10858 ft 374 kts 207°
2026-04-23 02:23 -5.44202 -42.97935 11307 ft 379 kts 207°
2026-04-23 02:24 -5.46518 -42.99213 11857 ft 380 kts 207°
2026-04-23 02:24 -5.48837 -43.00498 12389 ft 383 kts 207°
2026-04-23 02:24 -5.51176 -43.01798 12869 ft 386 kts 207°
2026-04-23 02:24 -5.53535 -43.03112 13342 ft 390 kts 207°
2026-04-23 02:25 -5.55926 -43.04445 13879 ft 393 kts 208°
2026-04-23 02:25 -5.58326 -43.05783 14362 ft 396 kts 208°
2026-04-23 02:25 -5.60738 -43.07128 14853 ft 398 kts 208°
2026-04-23 02:25 -5.63174 -43.08485 15326 ft 402 kts 208°
2026-04-23 02:26 -5.65630 -43.09854 15811 ft 406 kts 208°
2026-04-23 02:26 -5.68106 -43.11243 16339 ft 409 kts 208°
2026-04-23 02:26 -5.70577 -43.12693 16882 ft 412 kts 210°
2026-04-23 02:26 -5.73008 -43.14163 17389 ft 415 kts 210°
2026-04-23 02:27 -5.75488 -43.15678 17885 ft 419 kts 210°
2026-04-23 02:27 -5.78026 -43.17229 18360 ft 423 kts 210°
2026-04-23 02:27 -5.80550 -43.18764 18809 ft 426 kts 210°
2026-04-23 02:27 -5.83064 -43.20285 19250 ft 429 kts 210°
2026-04-23 02:28 -5.85624 -43.21828 19715 ft 431 kts 210°
2026-04-23 02:28 -5.88205 -43.23379 20135 ft 434 kts 210°
2026-04-23 02:28 -5.90805 -43.24941 20562 ft 437 kts 211°
2026-04-23 02:28 -5.93424 -43.26514 20974 ft 440 kts 211°
2026-04-23 02:29 -5.96058 -43.28098 21406 ft 442 kts 211°
2026-04-23 02:29 -5.98702 -43.29688 21853 ft 444 kts 211°
2026-04-23 02:29 -6.01361 -43.31288 22254 ft 447 kts 211°
2026-04-23 02:29 -6.04036 -43.32899 22654 ft 450 kts 211°
2026-04-23 02:30 -6.06582 -43.34432 23017 ft 453 kts 211°
2026-04-23 02:30 -6.09289 -43.36063 23412 ft 455 kts 211°
2026-04-23 02:30 -6.12012 -43.37703 23789 ft 457 kts 211°
2026-04-23 02:30 -6.14743 -43.39349 24127 ft 459 kts 211°
2026-04-23 02:31 -6.17483 -43.41000 24447 ft 461 kts 211°
2026-04-23 02:31 -6.20236 -43.42658 24810 ft 462 kts 211°
2026-04-23 02:31 -6.22993 -43.44319 25152 ft 463 kts 211°
2026-04-23 02:31 -6.25768 -43.45990 25477 ft 466 kts 211°
2026-04-23 02:32 -6.28553 -43.47667 25825 ft 467 kts 211°
2026-04-23 02:32 -6.31341 -43.49346 26161 ft 469 kts 211°
2026-04-23 02:32 -6.34150 -43.51039 26507 ft 471 kts 211°
2026-04-23 02:32 -6.36956 -43.52730 26926 ft 470 kts 211°
2026-04-23 02:33 -6.39744 -43.54411 27468 ft 466 kts 211°
2026-04-23 02:33 -6.42514 -43.56081 28022 ft 463 kts 211°
2026-04-23 02:33 -6.45273 -43.57743 28486 ft 461 kts 211°
2026-04-23 02:33 -6.48015 -43.59395 28889 ft 460 kts 211°
2026-04-23 02:34 -6.50761 -43.61049 29301 ft 460 kts 211°
2026-04-23 02:34 -6.53504 -43.62702 29752 ft 458 kts 210°
2026-04-23 02:34 -6.56225 -43.64342 30194 ft 455 kts 210°
2026-04-23 02:34 -6.58938 -43.65978 30567 ft 454 kts 210°
2026-04-23 02:35 -6.61644 -43.67611 30862 ft 454 kts 210°
2026-04-23 02:35 -6.64347 -43.69241 31158 ft 454 kts 210°
2026-04-23 02:35 -6.67048 -43.70869 31495 ft 452 kts 210°
2026-04-23 02:35 -6.69742 -43.72493 31845 ft 450 kts 210°
2026-04-23 02:36 -6.72426 -43.74112 32180 ft 449 kts 209°
2026-04-23 02:36 -6.75105 -43.75726 32478 ft 448 kts 210°
2026-04-23 02:36 -6.77776 -43.77336 32747 ft 448 kts 209°
2026-04-23 02:36 -6.80444 -43.78944 33051 ft 447 kts 209°
2026-04-23 02:37 -6.83106 -43.80549 33367 ft 445 kts 209°
2026-04-23 02:37 -6.85752 -43.82144 33665 ft 443 kts 209°
2026-04-23 02:37 -6.88406 -43.83742 33816 ft 446 kts 209°
2026-04-23 02:38 -6.93726 -43.86948 33909 ft 444 kts 209°
2026-04-23 02:38 -6.98986 -43.90120 33932 ft 438 kts 210°
2026-04-23 02:39 -7.04200 -43.93267 33941 ft 436 kts 209°
2026-04-23 02:39 -7.09419 -43.96416 33946 ft 438 kts 210°
2026-04-23 02:40 -7.14655 -43.99577 33944 ft 440 kts 210°
2026-04-23 02:40 -7.19874 -44.02727 33947 ft 440 kts 210°
2026-04-23 02:41 -7.25108 -44.05886 33956 ft 438 kts 210°
2026-04-23 02:41 -7.30329 -44.09038 33949 ft 437 kts 210°
2026-04-23 02:42 -7.35546 -44.12188 33954 ft 438 kts 210°
2026-04-23 02:42 -7.40789 -44.15355 33951 ft 439 kts 210°
2026-04-23 02:43 -7.46040 -44.18526 33955 ft 440 kts 210°
2026-04-23 02:43 -7.51296 -44.21702 33949 ft 441 kts 210°
2026-04-23 02:44 -7.55697 -44.24362 33952 ft 439 kts 210°
2026-04-23 02:44 -7.61787 -44.28041 33952 ft 439 kts 210°
2026-04-23 02:45 -7.66148 -44.30676 33953 ft 440 kts 210°
2026-04-23 02:45 -7.71402 -44.33853 33958 ft 441 kts 210°
2026-04-23 02:46 -7.76660 -44.37032 33951 ft 441 kts 210°
2026-04-23 02:46 -7.81929 -44.40217 33958 ft 441 kts 210°
2026-04-23 02:47 -7.87200 -44.43406 33962 ft 442 kts 210°
2026-04-23 02:47 -7.92505 -44.46615 33962 ft 441 kts 210°
2026-04-23 02:48 -7.97716 -44.49768 33964 ft 440 kts 210°
2026-04-23 02:48 -8.02966 -44.52944 33961 ft 440 kts 210°
2026-04-23 02:49 -8.08221 -44.56124 33961 ft 441 kts 210°
2026-04-23 02:49 -8.13480 -44.59308 33960 ft 441 kts 210°
2026-04-23 02:50 -8.18747 -44.62496 33965 ft 441 kts 210°
2026-04-23 02:50 -8.24012 -44.65686 33959 ft 442 kts 210°
2026-04-23 02:51 -8.29284 -44.68879 33964 ft 442 kts 210°
2026-04-23 02:51 -8.34557 -44.72073 33963 ft 441 kts 210°
2026-04-23 02:52 -8.39816 -44.75259 33960 ft 441 kts 210°
2026-04-23 02:52 -8.45070 -44.78444 33960 ft 440 kts 210°
2026-04-23 02:53 -8.50328 -44.81631 33959 ft 441 kts 210°
2026-04-23 02:53 -8.55595 -44.84825 33959 ft 442 kts 210°
2026-04-23 02:54 -8.60870 -44.88026 33962 ft 443 kts 210°
2026-04-23 02:54 -8.66152 -44.91231 33959 ft 443 kts 209°
2026-04-23 02:55 -8.71436 -44.94437 33964 ft 443 kts 210°
2026-04-23 02:55 -8.76708 -44.97636 33960 ft 441 kts 209°
2026-04-23 02:56 -8.81971 -45.00830 33960 ft 442 kts 209°
2026-04-23 02:56 -8.87242 -45.04030 33967 ft 443 kts 209°
2026-04-23 02:57 -8.92532 -45.07244 33960 ft 443 kts 209°
2026-04-23 02:57 -8.97820 -45.10457 33960 ft 444 kts 209°
2026-04-23 02:58 -9.03116 -45.13675 33963 ft 445 kts 209°
2026-04-23 02:58 -9.08419 -45.16898 33961 ft 444 kts 209°
2026-04-23 02:59 -9.13701 -45.20110 33971 ft 442 kts 208°
2026-04-23 02:59 -9.18979 -45.23318 33960 ft 443 kts 208°
2026-04-23 03:00 -9.24269 -45.26535 33965 ft 444 kts 209°
2026-04-23 03:00 -9.29534 -45.29739 33968 ft 445 kts 208°
2026-04-23 03:01 -9.34849 -45.32976 33960 ft 446 kts 208°
2026-04-23 03:01 -9.40163 -45.36213 33956 ft 444 kts 208°
2026-04-23 03:02 -9.45457 -45.39436 33954 ft 443 kts 208°
2026-04-23 03:02 -9.50751 -45.42660 33964 ft 444 kts 208°
2026-04-23 03:03 -9.56048 -45.45886 33950 ft 445 kts 208°
2026-04-23 03:03 -9.61325 -45.49102 33953 ft 446 kts 208°
2026-04-23 03:04 -9.66671 -45.52363 33954 ft 446 kts 208°
2026-04-23 03:04 -9.71986 -45.55604 33953 ft 445 kts 208°
2026-04-23 03:05 -9.77245 -45.58813 33945 ft 443 kts 207°
2026-04-23 03:05 -9.82569 -45.62062 33960 ft 444 kts 207°
2026-04-23 03:06 -9.87834 -45.65274 33955 ft 445 kts 207°
2026-04-23 03:06 -9.93145 -45.68517 33959 ft 446 kts 207°
2026-04-23 03:07 -9.98459 -45.71760 33960 ft 446 kts 207°
2026-04-23 03:07 -10.03777 -45.75013 33960 ft 447 kts 207°
2026-04-23 03:08 -10.09094 -45.78266 33966 ft 446 kts 207°
2026-04-23 03:08 -10.14402 -45.81510 33973 ft 445 kts 207°
2026-04-23 03:09 -10.19701 -45.84750 33965 ft 445 kts 207°
2026-04-23 03:09 -10.24999 -45.87991 33982 ft 446 kts 207°
2026-04-23 03:10 -10.30322 -45.91245 33982 ft 446 kts 207°
2026-04-23 03:10 -10.35638 -45.94500 33982 ft 446 kts 207°
2026-04-23 03:11 -10.40959 -45.97763 33985 ft 447 kts 207°
2026-04-23 03:11 -10.46289 -46.01028 33986 ft 447 kts 207°
2026-04-23 03:12 -10.51624 -46.04297 33984 ft 448 kts 207°
2026-04-23 03:12 -10.56963 -46.07570 33989 ft 448 kts 207°
2026-04-23 03:13 -10.62294 -46.10840 33989 ft 447 kts 207°
2026-04-23 03:13 -10.67618 -46.14106 33989 ft 446 kts 207°
2026-04-23 03:14 -10.72938 -46.17372 33991 ft 447 kts 207°
2026-04-23 03:14 -10.78266 -46.20645 33988 ft 448 kts 207°
2026-04-23 03:15 -10.83598 -46.23921 33992 ft 448 kts 207°
2026-04-23 03:15 -10.88934 -46.27199 33995 ft 448 kts 207°
2026-04-23 03:16 -10.94268 -46.30477 33991 ft 448 kts 207°
2026-04-23 03:16 -11.02274 -46.35400 33996 ft 448 kts 207°
2026-04-23 03:17 -11.07617 -46.38687 33995 ft 449 kts 207°
2026-04-23 03:17 -11.12951 -46.41973 33992 ft 449 kts 207°
2026-04-23 03:18 -11.18264 -46.45246 34000 ft 449 kts 207°
2026-04-23 03:18 -11.23647 -46.48562 33995 ft 449 kts 207°
2026-04-23 03:19 -11.28994 -46.51856 33995 ft 450 kts 207°
2026-04-23 03:19 -11.34348 -46.55157 33996 ft 450 kts 207°
2026-04-23 03:20 -11.39673 -46.58440 33998 ft 450 kts 207°
2026-04-23 03:20 -11.45073 -46.61776 33988 ft 449 kts 207°
2026-04-23 03:21 -11.50389 -46.65058 33987 ft 448 kts 207°
2026-04-23 03:21 -11.55731 -46.68357 33988 ft 449 kts 207°
2026-04-23 03:22 -11.61073 -46.71659 33978 ft 449 kts 207°
2026-04-23 03:22 -11.66424 -46.74965 33979 ft 450 kts 207°
2026-04-23 03:23 -11.71776 -46.78275 33969 ft 450 kts 207°
2026-04-23 03:23 -11.77143 -46.81593 33965 ft 451 kts 207°
2026-04-23 03:24 -11.82496 -46.84896 33965 ft 449 kts 207°
2026-04-23 03:24 -11.87810 -46.88180 33962 ft 449 kts 207°
2026-04-23 03:25 -11.93147 -46.91493 33958 ft 450 kts 208°
2026-04-23 03:25 -11.98374 -46.95115 33955 ft 452 kts 211°
2026-04-23 03:26 -12.03498 -46.98844 33953 ft 452 kts 211°
2026-04-23 03:26 -12.08615 -47.02512 33955 ft 452 kts 211°
2026-04-23 03:27 -12.13789 -47.06170 33952 ft 452 kts 211°
2026-04-23 03:27 -12.18969 -47.09822 33955 ft 452 kts 211°
2026-04-23 03:28 -12.24148 -47.13483 33946 ft 453 kts 211°
2026-04-23 03:28 -12.28482 -47.16553 33950 ft 453 kts 211°
2026-04-23 03:29 -12.33663 -47.20229 33954 ft 453 kts 211°
2026-04-23 03:29 -12.38840 -47.23902 33954 ft 453 kts 211°
2026-04-23 03:30 -12.43994 -47.27559 33952 ft 453 kts 211°
2026-04-23 03:30 -12.49178 -47.31239 33952 ft 454 kts 211°
2026-04-23 03:31 -12.54361 -47.34918 33955 ft 454 kts 211°
2026-04-23 03:31 -12.59552 -47.38607 33950 ft 454 kts 211°
2026-04-23 03:32 -12.64742 -47.42297 33955 ft 454 kts 211°
2026-04-23 03:32 -12.69935 -47.45992 33950 ft 455 kts 211°
2026-04-23 03:33 -12.75128 -47.49688 33953 ft 455 kts 211°
2026-04-23 03:33 -12.80321 -47.53386 33953 ft 455 kts 211°
2026-04-23 03:34 -12.85520 -47.57089 33957 ft 454 kts 211°
2026-04-23 03:34 -12.90692 -47.60775 33952 ft 453 kts 211°
2026-04-23 03:35 -12.95875 -47.64468 33958 ft 453 kts 211°
2026-04-23 03:35 -13.01052 -47.68162 33965 ft 454 kts 211°
2026-04-23 03:36 -13.06238 -47.71866 33968 ft 454 kts 211°
2026-04-23 03:36 -13.11424 -47.75569 33974 ft 455 kts 211°
2026-04-23 03:37 -13.16621 -47.79281 33981 ft 455 kts 211°
2026-04-23 03:37 -13.21807 -47.82987 33978 ft 455 kts 211°
2026-04-23 03:38 -13.27002 -47.86702 33981 ft 453 kts 211°
2026-04-23 03:38 -13.32164 -47.90397 33986 ft 452 kts 211°
2026-04-23 03:39 -13.37337 -47.94097 33987 ft 454 kts 211°
2026-04-23 03:39 -13.42484 -47.97784 33985 ft 455 kts 211°
2026-04-23 03:40 -13.47683 -48.01512 33987 ft 455 kts 211°
2026-04-23 03:40 -13.52899 -48.05253 33985 ft 454 kts 211°
2026-04-23 03:41 -13.57059 -48.08235 33982 ft 453 kts 211°
2026-04-23 03:41 -13.62228 -48.11941 33978 ft 453 kts 211°
2026-04-23 03:42 -13.67368 -48.15630 33977 ft 453 kts 211°
2026-04-23 03:42 -13.72531 -48.19343 33977 ft 454 kts 212°
2026-04-23 03:43 -13.77713 -48.23068 33978 ft 454 kts 212°
2026-04-23 03:43 -13.82892 -48.26792 33977 ft 455 kts 212°
2026-04-23 03:44 -13.88076 -48.30522 33975 ft 455 kts 212°
2026-04-23 03:44 -13.93259 -48.34251 33977 ft 454 kts 212°
2026-04-23 03:45 -13.98429 -48.37974 33975 ft 454 kts 212°
2026-04-23 03:45 -14.03622 -48.41711 33975 ft 454 kts 211°
2026-04-23 03:46 -14.08795 -48.45435 33976 ft 454 kts 212°
2026-04-23 03:46 -14.13969 -48.49164 33979 ft 454 kts 212°
2026-04-23 03:47 -14.16680 -48.50782 33982 ft 447 kts 197°
2026-04-23 03:47 -14.19656 -48.51594 33985 ft 441 kts 185°
2026-04-23 03:47 -14.25754 -48.52383 33977 ft 442 kts 182°
2026-04-23 03:48 -14.31872 -48.53056 33976 ft 443 kts 183°
2026-04-23 03:48 -14.37990 -48.53804 33983 ft 442 kts 184°
2026-04-23 03:49 -14.44072 -48.54619 33988 ft 440 kts 184°
2026-04-23 03:49 -14.50141 -48.55441 33984 ft 440 kts 184°
2026-04-23 03:50 -14.53208 -48.55851 33546 ft 449 kts 184°
2026-04-23 03:50 -14.56317 -48.56265 33034 ft 453 kts 184°
2026-04-23 03:50 -14.59399 -48.56677 32470 ft 450 kts 184°
2026-04-23 03:50 -14.62488 -48.57090 31849 ft 448 kts 184°
2026-04-23 03:51 -14.65576 -48.57503 31217 ft 448 kts 184°
2026-04-23 03:51 -14.68672 -48.57916 30578 ft 451 kts 185°
2026-04-23 03:51 -14.71795 -48.58331 29919 ft 454 kts 185°
2026-04-23 03:51 -14.74927 -48.58746 29200 ft 453 kts 185°
2026-04-23 03:52 -14.78038 -48.59159 28536 ft 449 kts 185°
2026-04-23 03:52 -14.81117 -48.59569 27900 ft 444 kts 185°
2026-04-23 03:52 -14.84169 -48.59975 27273 ft 440 kts 185°
2026-04-23 03:52 -14.87195 -48.60378 26680 ft 437 kts 185°
2026-04-23 03:53 -14.90206 -48.60780 26083 ft 434 kts 185°
2026-04-23 03:53 -14.93197 -48.61177 25473 ft 433 kts 186°
2026-04-23 03:53 -14.96188 -48.61573 24849 ft 432 kts 186°
2026-04-23 03:53 -14.99166 -48.61969 24213 ft 431 kts 186°
2026-04-23 03:54 -15.02148 -48.62055 23576 ft 427 kts 170°
2026-04-23 03:54 -15.04972 -48.61237 22823 ft 422 kts 155°
2026-04-23 03:54 -15.07625 -48.59942 22070 ft 420 kts 151°
2026-04-23 03:54 -15.10217 -48.58553 21357 ft 418 kts 150°
2026-04-23 03:55 -15.12777 -48.57152 20651 ft 416 kts 150°
2026-04-23 03:55 -15.15330 -48.55753 19951 ft 414 kts 150°
2026-04-23 03:55 -15.17877 -48.54373 19269 ft 411 kts 151°
2026-04-23 03:55 -15.20407 -48.53029 18613 ft 409 kts 152°
2026-04-23 03:56 -15.22907 -48.51723 17896 ft 406 kts 152°
2026-04-23 03:56 -15.25414 -48.50426 17174 ft 402 kts 152°
2026-04-23 03:56 -15.27903 -48.49144 16480 ft 397 kts 153°
2026-04-23 03:56 -15.30362 -48.47879 15814 ft 392 kts 152°
2026-04-23 03:57 -15.32790 -48.46628 15158 ft 387 kts 153°
2026-04-23 03:57 -15.35187 -48.45389 14508 ft 382 kts 153°
2026-04-23 03:57 -15.37547 -48.44167 13890 ft 375 kts 153°
2026-04-23 03:57 -15.39852 -48.42973 13192 ft 365 kts 153°
2026-04-23 03:58 -15.42081 -48.41819 12533 ft 351 kts 153°
2026-04-23 03:58 -15.44219 -48.40711 11935 ft 335 kts 153°
2026-04-23 03:58 -15.46258 -48.39653 11376 ft 322 kts 153°
2026-04-23 03:58 -15.48279 -48.38603 10853 ft 327 kts 153°
2026-04-23 03:59 -15.50289 -48.37559 10563 ft 316 kts 153°
2026-04-23 03:59 -15.52198 -48.36566 10490 ft 295 kts 153°
2026-04-23 03:59 -15.53965 -48.35648 10461 ft 274 kts 152°
2026-04-23 03:59 -15.55660 -48.34765 10463 ft 274 kts 153°
2026-04-23 04:00 -15.57378 -48.33870 10408 ft 278 kts 152°
2026-04-23 04:00 -15.59101 -48.32975 10334 ft 277 kts 152°
2026-04-23 04:00 -15.60832 -48.32078 10310 ft 278 kts 153°
2026-04-23 04:00 -15.62564 -48.31184 10251 ft 276 kts 153°
2026-04-23 04:01 -15.64273 -48.30304 9898 ft 274 kts 153°
2026-04-23 04:01 -15.65979 -48.29429 9502 ft 272 kts 153°
2026-04-23 04:01 -15.67650 -48.28576 9353 ft 264 kts 152°
2026-04-23 04:01 -15.69299 -48.27728 9272 ft 267 kts 152°
2026-04-23 04:02 -15.70411 -48.27156 9234 ft 271 kts 152°
2026-04-23 04:02 -15.71718 -48.26484 9183 ft 272 kts 152°
2026-04-23 04:02 -15.73419 -48.25611 9099 ft 272 kts 152°
2026-04-23 04:02 -15.75105 -48.24745 8851 ft 271 kts 152°
2026-04-23 04:03 -15.76798 -48.23876 8596 ft 271 kts 152°
2026-04-23 04:03 -15.78487 -48.23014 8345 ft 270 kts 154°
2026-04-23 04:03 -15.80304 -48.22500 8093 ft 272 kts 169°
2026-04-23 04:03 -15.82182 -48.22261 7847 ft 272 kts 172°
2026-04-23 04:04 -15.84016 -48.21872 7598 ft 268 kts 152°
2026-04-23 04:04 -15.85426 -48.20676 7397 ft 261 kts 123°
2026-04-23 04:04 -15.86326 -48.19105 7451 ft 249 kts 117°
2026-04-23 04:04 -15.87105 -48.17552 7581 ft 233 kts 115°
2026-04-23 04:05 -15.87708 -48.16061 7577 ft 219 kts 97°
2026-04-23 04:05 -15.87595 -48.14570 7411 ft 192 kts 84°
2026-04-23 04:05 -15.87534 -48.13279 7267 ft 169 kts 91°
2026-04-23 04:05 -15.87555 -48.12086 7024 ft 164 kts 90°
2026-04-23 04:06 -15.87512 -48.10908 6812 ft 163 kts 87°
2026-04-23 04:06 -15.87449 -48.09744 6580 ft 159 kts 86°
2026-04-23 04:06 -15.87382 -48.08612 6355 ft 155 kts 86°
2026-04-23 04:06 -15.87310 -48.07510 6170 ft 151 kts 86°
2026-04-23 04:07 -15.87241 -48.06438 5996 ft 148 kts 86°
2026-04-23 04:07 -15.87172 -48.05381 5821 ft 145 kts 86°
2026-04-23 04:07 -15.87105 -48.04346 5649 ft 143 kts 86°
2026-04-23 04:07 -15.87039 -48.03316 5488 ft 142 kts 86°
2026-04-23 04:08 -15.86970 -48.02296 5320 ft 141 kts 86°
2026-04-23 04:08 -15.86906 -48.01278 5152 ft 141 kts 87°
2026-04-23 04:08 -15.86840 -48.00259 4995 ft 141 kts 86°
2026-04-23 04:08 -15.86777 -47.99236 4796 ft 142 kts 85°
2026-04-23 04:09 -15.86710 -47.98222 4617 ft 144 kts 86°
2026-04-23 04:09 -15.86641 -47.97176 4420 ft 146 kts 87°
2026-04-23 04:09 -15.86575 -47.96105 4188 ft 149 kts 86°
2026-04-23 04:09 -15.86512 -47.95026 3899 ft 154 kts 86°
2026-04-23 04:10 -15.86433 -47.93942 3704 ft 153 kts 85°
2026-04-23 04:10 -15.86359 -47.92846 3517 ft 153 kts 88°
2026-04-23 04:10 -15.86298 -47.91832 3465 ft 131 kts 87°
2026-04-23 04:10 -15.86259 -47.91214 3468 ft 45 kts 86°
2026-04-23 04:11 -15.86248 -47.91034 3475 ft 1 kts 85°
2026-04-23 04:11 -15.86246 -47.91011 3476 ft 8 kts 85°
2026-04-23 04:11 -15.86242 -47.90955 3477 ft 7 kts 89°
2026-04-23 04:11 -15.86255 -47.90873 3477 ft 15 kts 110°
2026-04-23 04:12 -15.86297 -47.90801 3480 ft 12 kts 128°
2026-04-23 04:12 -15.86326 -47.90766 3481 ft 4 kts 130°
2026-04-23 04:12 -15.86362 -47.90727 3481 ft 0 kts 144°
2026-04-23 04:12 -15.86390 -47.90714 3483 ft 7 kts 167°
2026-04-23 04:13 -15.86436 -47.90747 3480 ft 10 kts 255°
2026-04-23 04:13 -15.86438 -47.90852 3478 ft 21 kts 271°
2026-04-23 04:13 -15.86444 -47.91049 3473 ft 32 kts 267°
2026-04-23 04:13 -15.86457 -47.91284 3469 ft 32 kts 266°
2026-04-23 04:14 -15.86472 -47.91521 3465 ft 33 kts 265°
2026-04-23 04:14 -15.86488 -47.91750 3469 ft 31 kts 267°
2026-04-23 04:14 -15.86500 -47.91969 3469 ft 30 kts 266°
2026-04-23 04:14 -15.86515 -47.92184 3470 ft 29 kts 266°
2026-04-23 04:15 -15.86527 -47.92392 3469 ft 29 kts 266°
2026-04-23 04:15 -15.86541 -47.92599 3466 ft 29 kts 265°
2026-04-23 04:15 -15.86461 -47.92788 3461 ft 14 kts
2026-04-23 04:16 -15.86382 -47.92749 3460 ft 12 kts 44°
2026-04-23 04:16 -15.86343 -47.92524 3464 ft 72 kts 86°
2026-04-23 04:16 -15.86290 -47.91696 3464 ft 155 kts 86°
2026-04-23 04:16 -15.86215 -47.90361 3799 ft 202 kts 87°
2026-04-23 04:17 -15.86116 -47.88896 4844 ft 202 kts 85°
2026-04-23 04:17 -15.86074 -47.88406 5117 ft 202 kts 85°